CAPE
1 0 nan nan nan nan nan 0 0 0 nan nan nan nan nan nan nan nan nan nan nan nan 0 nan nan 0 6 21 22 22 21 17 13 13 9 6 3 3 2 3 3 6 12 18 18 17 19 23 23 30 42 48 49 49 49 49 49 47 46 43 43 42 39 35 35 33 30 29 29 29 24 22 19 19 19 21 20 20 20 19 19 18 21 27 27 34
0 nan nan nan nan nan nan nan 0 0 0 nan nan nan nan nan nan nan nan nan nan nan nan 0 0 0 0 16 26 26 25 24 22 22 20 14 10 10 6 4 4 5 7 13 13 18 19 19 19 19 23 30 41 41 44 42 42 42 42 39 39 40 38 37 37 35 30 29 24 24 19 17 21 21 24 29 28 28 28 26 26 26 27 32 32 38
1 nan nan nan nan nan 0 nan nan nan 0 nan 1 1 nan nan nan nan nan nan nan nan nan 0 0 0 0 16 32 32 29 31 28 28 24 23 19 19 15 12 12 9 8 10 10 15 23 23 23 23 21 21 23 23 25 33 33 35 37 34 34 34 35 35 35 32 31 26 21 21 17 18 22 22 24 26 28 28 30 32 32 32 37 38 38 40
0 0 nan nan nan nan 0 0 nan nan nan nan nan nan nan nan nan nan nan nan nan nan nan nan nan 0 1 11 28 28 31 35 32 32 30 27 25 25 22 20 20 17 13 13 13 14 19 25 25 27 24 22 20 20 20 20 20 22 24 27 27 28 28 27 27 28 24 22 19 19 19 22 26 26 27 29 30 30 33 36 36 38 40 41 41 42
0 0 nan nan nan nan nan nan nan nan nan nan nan nan nan nan nan nan nan nan nan nan nan nan nan 0 1 3 19 19 28 35 33 33 35 31 26 26 26 24 24 23 20 19 19 19 19 23 23 26 25 24 22 22 23 20 20 19 17 18 18 18 19 21 21 20 21 19 22 22 20 23 25 25 27 31 34 34 36 38 38 40 42 44 44 41
nan nan nan nan nan nan nan nan nan nan nan nan nan nan nan nan nan nan nan nan nan nan nan nan nan 0 1 1 13 13 21 26 31 31 33 31 31 31 28 25 25 27 25 23 23 22 22 23 23 24 26 27 25 25 24 23 23 20 17 17 17 15 14 13 13 12 12 13 13 13 15 15 16 16 18 23 27 27 33 35 35 40 43 42 42 42
nan nan nan nan nan nan nan nan nan nan nan nan nan nan nan nan nan nan nan nan nan nan nan nan nan nan nan 3 8 8 10 14 20 20 25 26 29 29 29 28 28 28 26 25 25 27 26 27 27 25 25 27 26 26 27 23 23 21 19 18 18 16 15 14 14 11 10 10 10 10 9 9 10 10 11 15 19 19 23 27 27 32 39 42 42 41
nan nan nan nan nan nan nan nan nan nan nan nan nan nan nan nan nan nan nan nan nan nan nan nan nan nan nan nan nan nan nan nan nan nan 0 7 19 19 23 25 25 24 25 24 24 25 26 29 29 30 29 30 29 29 29 25 25 27 25 23 23 23 23 21 21 21 19 18 15 15 13 13 11 11 11 12 15 15 19 24 24 29 31 33 33 38
nan nan nan nan nan nan nan nan nan nan nan nan nan nan nan nan nan nan nan nan nan nan nan nan nan nan nan nan nan nan nan nan nan nan nan nan 0 0 14 22 22 23 21 20 20 20 23 24 24 26 26 28 29 29 26 25 25 25 24 23 23 22 20 22 22 24 24 22 21 21 19 17 15 15 13 13 15 15 18 23 23 28 32 32 32 31
nan nan nan nan nan nan nan nan nan nan nan nan nan nan nan nan nan nan nan nan nan nan nan nan nan nan nan nan nan nan nan nan nan nan nan nan 1 1 0 3 3 16 15 17 17 17 17 17 17 18 21 22 23 23 21 21 21 22 24 23 23 23 23 21 21 23 22 22 21 21 22 19 16 16 15 15 15 15 15 17 17 21 24 25 25 25
nan nan nan nan nan nan nan nan nan nan nan nan nan nan nan nan nan nan nan nan nan nan nan nan nan nan nan nan nan nan nan nan nan nan nan nan nan nan nan nan nan 0 7 10 10 13 14 14 14 14 17 16 16 16 15 13 13 17 22 25 25 27 24 23 23 21 22 22 22 22 22 19 17 17 15 14 13 13 11 11 11 12 12 14 14 12
nan nan nan nan nan nan nan nan nan nan nan nan nan nan nan nan nan nan nan nan nan nan nan nan nan nan nan nan nan nan nan nan nan nan nan nan nan nan nan nan nan nan nan 0 0 9 18 20 20 18 17 15 15 15 15 11 11 13 14 19 19 21 21 20 20 21 21 23 22 22 21 18 15 15 13 11 9 9 8 6 6 5 3 3 3 2
nan nan nan nan nan nan nan nan nan nan nan nan nan nan nan nan nan nan nan nan nan nan nan nan nan nan nan nan nan nan nan nan nan nan nan nan nan nan nan nan nan nan nan nan nan nan 6 20 20 25 26 25 25 25 24 20 20 13 11 9 9 7 7 9 9 11 14 14 16 16 13 12 10 10 8 5 3 3 3 1 1 1 nan nan nan nan
nan nan nan nan nan nan nan nan nan nan nan nan nan nan nan nan nan nan nan nan nan nan nan nan nan nan nan nan nan nan nan nan nan nan nan nan nan nan nan nan nan nan nan nan nan nan nan nan nan 0 22 25 25 25 30 30 30 24 19 11 11 6 3 2 2 2 2 2 3 3 3 3 3 3 3 2 1 1 nan nan nan nan nan nan nan nan
nan nan nan nan nan nan nan nan nan nan nan nan nan nan nan nan nan nan nan nan nan nan nan nan nan nan nan nan nan nan nan nan nan nan nan nan nan nan nan nan nan nan nan nan nan nan nan nan nan nan nan 2 4 4 9 13 13 17 13 10 10 7 3 2 2 0 nan nan nan nan 0 0 0 0 nan nan nan nan nan nan nan nan nan nan nan nan
nan nan nan nan nan nan nan nan nan nan nan nan nan nan nan nan nan nan nan nan nan nan nan nan nan nan nan nan nan nan nan nan nan nan nan nan nan nan nan nan nan nan nan nan nan nan nan nan nan nan nan nan 0 0 nan 0 0 1 0 1 1 1 2 1 1 0 0 nan 0 0 0 nan nan nan nan nan nan nan nan nan nan nan nan nan nan nan
nan nan nan nan nan nan nan nan nan nan nan nan nan nan nan nan nan nan nan nan nan nan nan nan nan nan nan nan nan nan nan nan nan nan nan nan nan nan nan nan nan nan nan nan nan nan nan nan nan nan nan nan nan nan nan nan nan nan nan nan nan nan nan nan nan nan nan nan nan nan nan nan nan nan nan nan nan nan nan nan nan nan nan nan nan nan
nan nan nan nan nan nan nan nan nan nan nan nan nan nan nan nan nan nan nan nan nan nan nan nan nan nan nan nan nan nan nan nan nan nan nan nan nan nan nan nan nan nan nan nan nan nan nan nan nan nan nan nan nan nan nan nan nan nan nan nan nan nan nan nan nan nan nan nan nan nan nan nan nan nan nan nan nan nan nan nan nan nan nan nan nan nan
nan nan nan nan nan nan nan nan nan nan nan nan nan nan nan nan nan nan nan nan nan nan nan nan nan nan nan nan nan nan nan nan nan nan nan nan nan nan nan nan nan nan nan nan nan nan nan nan nan nan 4 nan nan nan nan nan nan nan nan nan nan nan nan nan nan nan nan nan nan nan nan nan nan nan nan nan nan nan nan nan nan nan nan nan nan nan
nan nan nan nan nan nan nan nan nan nan nan nan nan nan nan nan nan nan nan nan nan nan nan nan nan nan nan nan nan nan nan nan nan nan nan nan nan nan nan nan nan nan nan nan nan nan nan nan nan nan 3 0 nan nan nan nan nan nan nan nan nan nan nan nan nan nan nan nan nan nan nan nan nan nan nan nan nan nan nan nan nan nan nan nan nan nan
nan nan nan nan nan nan nan nan nan nan nan nan nan nan nan nan nan nan nan nan nan nan nan nan nan nan nan nan nan nan nan nan nan nan nan nan nan nan nan nan nan nan nan nan nan nan nan nan nan nan 1 1 0 0 nan nan nan nan nan nan nan nan nan nan nan nan nan nan nan nan nan nan nan nan nan nan nan nan nan nan nan nan nan nan nan nan
nan nan nan nan nan nan nan nan nan nan 0 nan nan nan nan nan nan nan nan nan nan nan nan nan nan nan nan nan nan nan nan nan nan nan nan nan nan nan nan nan nan nan nan nan nan nan nan nan nan nan nan 4 0 0 nan nan nan nan nan nan nan nan nan nan nan nan nan nan nan nan nan nan nan nan nan nan nan nan nan nan nan nan nan nan nan nan
nan nan nan nan nan nan nan nan nan nan nan nan nan nan nan nan nan nan nan nan nan nan nan nan nan nan nan nan nan nan nan nan nan nan nan nan nan nan nan nan nan nan nan nan nan nan nan nan nan nan nan 4 0 0 0 nan nan nan nan nan nan nan nan nan nan nan nan nan nan nan nan nan nan nan nan nan nan nan nan nan nan nan nan nan nan nan
nan nan nan nan nan nan nan nan nan nan nan nan nan nan nan nan nan nan nan nan nan nan nan nan nan nan nan nan nan nan nan nan nan nan nan nan nan nan nan nan nan nan nan nan nan nan nan nan nan nan nan nan nan nan nan nan nan nan nan nan nan nan nan nan nan nan nan nan nan nan nan nan nan nan nan nan nan nan nan nan nan nan nan nan nan nan
nan nan nan nan nan nan nan nan nan nan nan nan nan nan nan nan nan nan nan nan nan nan nan nan nan nan nan nan nan nan nan nan nan nan nan nan nan nan nan nan nan nan nan nan nan nan nan nan nan nan nan nan nan nan nan nan nan nan nan 0 0 0 0 0 0 nan nan nan nan nan nan 0 0 0 nan nan nan nan nan nan nan nan nan nan nan nan
nan nan nan nan nan nan nan nan nan nan nan nan nan nan nan nan nan nan nan nan nan nan nan nan nan nan nan nan nan nan nan nan nan nan nan nan nan nan nan nan nan nan nan nan nan nan nan nan nan nan nan nan nan nan nan nan nan nan nan 0 0 1 1 1 1 0 0 0 0 0 0 0 0 0 0 nan 0 0 nan nan nan nan nan nan nan nan
0 0 10 12 12 8 3 1 nan nan nan nan nan nan nan nan nan nan nan nan nan nan nan nan nan nan nan nan nan nan nan nan nan nan nan nan nan nan nan nan nan nan nan nan nan nan nan nan nan nan nan nan nan nan nan nan nan nan nan nan nan 1 1 1 1 1 1 1 1 1 2 2 2 2 1 0 0 0 nan nan nan nan nan nan nan nan
nan nan nan nan nan 1 4 6 4 4 1 nan nan nan nan nan nan nan nan nan nan nan nan nan nan nan nan nan nan nan nan nan nan nan nan nan nan nan nan nan nan nan nan nan nan nan nan nan nan nan nan nan nan nan nan nan nan nan nan nan nan 0 1 1 1 1 1 2 2 2 3 3 2 2 2 1 0 0 0 0 0 nan nan nan nan nan
nan nan nan nan nan nan nan nan 2 2 nan nan nan nan nan nan nan nan nan nan nan nan nan nan nan nan nan nan nan nan nan nan nan nan nan nan nan nan nan nan nan nan nan nan nan nan nan nan nan nan nan nan nan nan nan nan nan nan nan nan nan nan 0 0 0 0 1 1 3 3 3 3 3 3 2 1 0 0 1 1 1 1 nan nan nan nan
nan nan nan nan nan nan nan nan nan nan nan nan nan nan nan nan nan nan nan nan nan nan nan nan nan nan nan nan nan nan nan nan nan nan nan nan nan nan nan nan nan nan nan nan nan nan nan nan nan nan nan nan nan nan nan nan nan nan nan nan nan nan nan nan nan nan 0 1 2 2 3 2 2 2 1 1 1 1 1 2 2 nan nan nan nan nan
nan nan nan nan nan nan nan nan nan nan nan nan nan nan nan nan nan nan nan nan nan nan nan nan nan nan nan nan nan nan nan nan nan nan nan nan nan nan nan nan nan nan nan nan nan nan nan nan nan nan nan nan nan nan nan nan nan nan nan nan nan nan nan nan nan nan nan 0 1 1 1 1 1 1 1 1 1 1 1 3 3 nan nan nan nan nan
nan nan nan nan nan nan nan nan nan nan nan nan nan nan nan nan nan nan nan nan nan nan nan nan nan nan nan nan nan nan nan nan nan nan nan nan nan nan nan nan nan nan nan nan nan nan nan nan nan nan nan nan nan nan nan nan nan nan nan nan nan nan nan nan nan nan nan nan nan nan nan nan nan nan nan nan 0 0 1 2 2 3 nan nan nan nan
nan nan nan nan nan nan nan nan nan nan nan nan nan nan nan nan nan nan nan nan nan nan nan nan nan nan nan nan nan nan nan nan nan nan nan nan nan nan nan nan nan nan nan nan nan nan nan nan nan nan nan nan nan nan nan nan nan nan nan nan nan nan nan nan nan nan nan nan nan nan nan nan nan nan nan nan nan nan 0 0 0 0 nan nan nan nan
nan nan nan nan nan nan nan nan nan nan nan nan nan nan nan nan nan nan nan nan nan nan nan nan nan nan nan nan nan nan nan nan nan nan nan nan nan nan nan nan nan nan nan nan nan nan nan nan nan nan nan nan nan nan nan nan nan nan nan nan nan nan nan nan nan nan nan nan nan nan nan nan nan nan nan nan nan nan nan nan nan nan nan nan nan nan
nan nan nan nan nan nan nan nan nan nan nan nan nan nan nan nan nan nan nan nan nan nan nan nan nan nan nan nan nan nan nan nan nan nan nan nan nan nan nan nan nan nan nan nan nan nan nan nan nan nan nan nan nan nan nan nan nan nan nan nan nan nan nan nan nan nan nan nan nan nan nan nan nan nan nan nan nan nan nan nan nan nan nan nan nan nan
nan nan nan nan nan nan nan nan nan nan nan nan nan nan nan nan nan nan nan nan nan nan nan nan nan nan nan nan nan nan nan nan nan nan nan nan nan nan nan nan nan nan nan nan nan nan nan nan nan nan nan nan nan nan nan nan nan nan nan nan nan nan nan nan nan nan nan nan nan nan nan nan nan nan nan nan nan nan nan nan nan nan nan nan nan nan
nan nan nan nan nan nan nan nan nan nan nan nan nan nan nan nan nan nan nan nan nan nan nan nan nan nan nan nan nan nan nan nan nan nan nan nan nan nan nan nan nan nan nan nan nan nan nan nan nan nan nan nan nan nan nan nan nan nan nan nan nan nan nan nan nan nan nan nan nan nan nan nan nan nan nan nan nan nan nan nan nan nan nan nan nan nan
nan nan nan nan nan nan nan nan nan nan nan nan nan nan nan nan nan nan nan nan nan nan nan nan nan nan nan nan nan nan nan nan nan nan nan nan nan nan nan nan nan nan nan nan nan nan nan nan nan nan nan nan nan nan nan nan nan nan nan nan nan nan nan nan nan nan nan nan nan nan nan nan nan nan nan nan nan nan nan nan nan nan nan nan nan nan
nan nan nan nan nan nan nan nan nan nan nan nan nan nan nan nan nan nan nan nan nan nan nan nan nan nan nan nan nan nan nan nan nan nan nan nan nan nan nan nan nan nan nan nan nan nan nan nan nan nan nan nan nan nan nan nan nan nan nan nan nan nan nan nan nan nan nan nan nan nan nan nan nan nan nan nan nan nan nan nan nan nan nan nan nan nan
nan nan nan nan nan nan nan nan nan nan nan nan nan nan nan nan nan nan nan nan nan nan nan nan nan nan nan nan nan nan nan nan nan nan nan nan nan nan nan nan nan nan nan nan nan nan nan nan nan nan 1 nan nan nan nan nan nan nan 0 nan nan nan nan nan nan nan nan nan nan nan nan nan nan nan nan nan nan nan nan nan nan nan nan nan nan nan
nan nan nan nan nan nan nan nan nan nan nan nan nan nan nan nan nan nan nan nan nan nan nan nan nan nan nan nan nan nan nan nan nan nan nan nan nan nan nan nan nan nan nan nan nan nan nan nan nan nan 0 nan 0 0 0 nan nan 0 1 nan nan nan nan nan nan nan nan nan nan nan nan nan nan nan nan nan nan nan nan nan nan nan nan nan nan nan
nan nan nan nan nan nan nan nan nan nan nan nan nan nan nan nan nan nan nan nan nan nan nan nan nan nan nan nan nan nan nan nan nan nan nan nan nan nan nan nan nan nan nan nan nan nan nan nan nan nan nan nan nan nan nan nan nan nan nan nan nan nan nan nan nan nan nan nan nan nan nan nan nan nan nan nan nan nan nan nan nan nan nan nan nan nan
nan nan nan nan nan nan nan nan nan nan nan nan nan nan nan nan nan nan nan nan nan nan nan nan nan nan nan nan nan nan nan nan nan nan nan nan nan nan nan nan nan nan nan nan nan nan nan nan nan nan nan nan nan nan nan nan nan nan nan nan nan nan nan nan nan nan nan nan nan nan nan nan nan nan nan nan nan nan nan nan nan nan nan nan nan nan
nan nan nan nan nan nan nan nan nan nan nan nan nan nan nan nan nan nan nan nan nan nan nan nan nan nan nan nan nan nan nan nan nan nan nan nan nan nan nan nan nan nan nan nan nan nan nan nan nan nan nan nan nan nan nan nan nan nan nan nan nan nan nan nan nan nan nan nan nan nan nan nan nan nan nan nan nan nan nan nan nan nan nan nan nan nan
nan nan nan nan nan nan nan nan nan nan nan nan nan nan nan nan nan nan nan nan nan nan nan nan nan nan nan nan nan nan nan nan nan nan nan nan nan nan nan nan nan nan nan nan nan nan nan nan nan nan nan nan nan nan nan nan nan nan nan nan nan nan nan nan nan nan nan nan nan nan nan nan nan nan nan nan nan nan nan nan nan nan nan nan nan nan
nan nan nan nan nan nan nan nan nan nan nan nan nan nan nan nan nan nan nan nan nan nan nan nan nan nan nan 0 nan nan nan nan nan nan nan nan nan nan nan nan nan nan nan nan nan nan nan nan nan nan nan nan nan nan nan nan nan nan nan nan nan nan nan nan nan nan nan nan nan nan nan nan nan nan nan nan nan nan nan nan nan nan nan nan nan nan
nan nan nan nan nan nan nan nan nan nan nan nan nan nan nan nan nan nan nan nan nan nan nan nan nan nan nan nan nan nan nan nan nan nan nan nan nan nan nan nan nan nan nan nan nan nan nan nan nan nan nan nan nan nan nan nan nan nan nan nan nan nan nan nan nan nan nan nan nan nan nan nan nan nan nan nan nan nan nan nan nan nan nan nan nan nan
nan nan nan nan nan nan nan nan nan nan nan nan nan nan nan nan nan nan nan nan nan nan nan nan nan nan nan nan nan nan nan nan nan nan nan nan nan nan nan nan nan nan nan nan nan nan nan nan nan nan nan nan nan nan nan nan nan nan nan nan nan nan nan nan nan nan nan nan nan nan nan nan nan nan nan nan nan nan nan nan nan nan nan nan nan nan
nan nan nan nan nan nan nan nan nan nan nan nan nan nan nan nan 4 4 nan nan nan nan nan nan nan nan nan nan nan nan nan nan nan nan nan nan nan nan nan nan nan nan nan nan nan nan nan nan nan nan nan nan nan nan nan nan nan nan nan nan nan nan nan nan nan nan nan nan nan nan nan nan nan nan nan nan nan nan nan nan nan nan nan nan nan nan
nan nan nan nan nan nan nan nan nan nan nan nan nan nan nan nan nan nan nan nan nan nan nan nan nan nan nan nan nan nan nan nan nan nan nan nan nan nan nan nan nan nan nan nan nan nan nan nan nan nan nan nan nan nan nan nan nan nan nan nan nan nan nan nan nan nan nan nan nan nan nan nan nan nan nan nan nan nan nan nan nan nan nan nan nan nan
nan nan nan nan nan nan nan nan nan nan nan nan nan nan nan nan nan nan nan nan nan nan nan nan nan nan nan nan nan nan nan nan nan nan nan nan nan nan nan nan nan nan nan nan nan nan nan nan nan nan nan nan nan nan nan nan nan nan nan nan nan nan nan nan nan nan nan nan nan nan nan nan nan nan nan nan 0 0 nan nan nan nan nan nan nan nan
CIN
-1 -1 nan nan nan nan nan -1 -1 -1 nan nan nan nan nan nan nan nan nan nan nan nan -1 nan nan -3 -1 -0 -0 -0 -0 -0 -0 -0 -0 -0 -0 -0 -0 -0 -0 -0 -0 -0 -0 -0 -0 -0 -0 -0 -0 -0 -0 -0 -0 -0 -0 -0 -0 -0 -0 -0 -0 -0 -0 -0 -0 -0 -0 -0 -0 -0 -0 -0 -0 -0 -0 -0 -0 -0 -0 -0 -0 -0 -0 -0
-1 nan nan nan nan nan nan nan -1 -1 -1 nan nan nan nan nan nan nan nan nan nan nan nan -1 -1 -1 -4 -0 -0 -0 -0 -0 -0 -0 -0 -0 -0 -0 -0 -0 -0 -0 -0 -0 -0 -0 -0 -0 -0 -0 -0 -0 -0 -0 -0 -0 -0 -0 -0 -0 -0 -0 -0 -0 -0 -0 -0 -0 -0 -0 -0 -0 -0 -0 -0 -0 -0 -0 -0 -0 -0 -0 -0 -0 -0 -0
-1 nan nan nan nan nan -1 nan nan nan -1 nan -0 -0 nan nan nan nan nan nan nan nan nan -1 -1 -1 -2 -0 -0 -0 -0 -0 -0 -0 -0 -0 -0 -0 -0 -0 -0 -0 -0 -0 -0 -0 -0 -0 -0 -0 -0 -0 -0 -0 -0 -0 -0 -0 -0 -0 -0 -0 -0 -0 -0 -0 -0 -0 -0 -0 -0 -0 -0 -0 -0 -0 -0 -0 -0 -0 -0 -0 -0 -0 -0 -0
-1 -1 nan nan nan nan -1 -0 nan nan nan nan nan nan nan nan nan nan nan nan nan nan nan nan nan -1 -1 -0 -0 -0 -0 -0 -0 -0 -0 -0 -0 -0 -0 -0 -0 -0 -0 -0 -0 -0 -0 -0 -0 -0 -0 -0 -0 -0 -0 -0 -0 -0 -0 -0 -0 -0 -0 -0 -0 -0 -0 -0 -0 -0 -0 -0 -0 -0 -0 -0 -0 -0 -0 -0 -0 -0 -0 -0 -0 -0
-1 -0 nan nan nan nan nan nan nan nan nan nan nan nan nan nan nan nan nan nan nan nan nan nan nan -1 -1 -0 -0 -0 -0 -0 -0 -0 -0 -0 -0 -0 -0 -0 -0 -0 -0 -0 -0 -0 -0 -0 -0 -0 -0 -0 -0 -0 -0 -0 -0 -0 -0 -0 -0 -0 -0 -0 -0 -0 -0 -0 -0 -0 -0 -0 -0 -0 -0 -0 -0 -0 -0 -0 -0 -0 -0 -0 -0 -0
nan nan nan nan nan nan nan nan nan nan nan nan nan nan nan nan nan nan nan nan nan nan nan nan nan -1 -1 -1 -0 -0 -0 -0 -0 -0 -0 -0 -0 -0 -0 -0 -0 -0 -0 -0 -0 -0 -0 -0 -0 -0 -0 -0 -0 -0 -0 -0 -0 -0 -0 -0 -0 -0 -0 -0 -0 -0 -0 -0 -0 -0 -0 -0 -0 -0 -0 -0 -0 -0 -0 -0 -0 -0 -0 -0 -0 -0
nan nan nan nan nan nan nan nan nan nan nan nan nan nan nan nan nan nan nan nan nan nan nan nan nan nan nan -1 -0 -0 -0 -0 -0 -0 -0 -0 -0 -0 -0 -0 -0 -0 -0 -0 -0 -0 -0 -0 -0 -0 -0 -0 -0 -0 -0 -0 -0 -0 -0 -0 -0 -0 -0 -0 -0 -0 -0 -0 -0 -0 -0 -0 -0 -0 -0 -0 -0 -0 -0 -0 -0 -0 -0 -0 -0 -0
nan nan nan nan nan nan nan nan nan nan nan nan nan nan nan nan nan nan nan nan nan nan nan nan nan nan nan nan nan nan nan nan nan nan -0 -0 -0 -0 -0 -0 -0 -0 -0 -0 -0 -0 -0 -0 -0 -0 -0 -0 -0 -0 -0 -0 -0 -0 -0 -0 -0 -0 -0 -0 -0 -0 -0 -0 -0 -0 -0 -0 -0 -0 -0 -0 -0 -0 -0 -0 -0 -0 -0 -0 -0 -0
nan nan nan nan nan nan nan nan nan nan nan nan nan nan nan nan nan nan nan nan nan nan nan nan nan nan nan nan nan nan nan nan nan nan nan nan -3 -3 -0 -0 -0 -0 -0 -0 -0 -0 -0 -0 -0 -0 -0 -0 -0 -0 -0 -0 -0 -0 -0 -0 -0 -0 -0 -0 -0 -0 -0 -0 -0 -0 -0 -0 -0 -0 -0 -0 -0 -0 -0 -0 -0 -0 -0 -0 -0 -0
nan nan nan nan nan nan nan nan nan nan nan nan nan nan nan nan nan nan nan nan nan nan nan nan nan nan nan nan nan nan nan nan nan nan nan nan -0 -0 -1 -1 -1 -0 -0 -0 -0 -0 -0 -0 -0 -0 -0 -0 -0 -0 -0 -0 -0 -0 -0 -0 -0 -0 -0 -0 -0 -0 -0 -0 -0 -0 -0 -0 -0 -0 -0 -0 -0 -0 -0 -0 -0 -0 -0 -0 -0 -0
nan nan nan nan nan nan nan nan nan nan nan nan nan nan nan nan nan nan nan nan nan nan nan nan nan nan nan nan nan nan nan nan nan nan nan nan nan nan nan nan nan -2 -0 -0 -0 -0 -0 -0 -0 -0 -0 -0 -0 -0 -0 -0 -0 -0 -0 -0 -0 -0 -0 -0 -0 -0 -0 -0 -0 -0 -0 -0 -0 -0 -0 -0 -0 -0 -0 -0 -0 -0 -0 -0 -0 -0
nan nan nan nan nan nan nan nan nan nan nan nan nan nan nan nan nan nan nan nan nan nan nan nan nan nan nan nan nan nan nan nan nan nan nan nan nan nan nan nan nan nan nan -2 -2 -2 -0 -0 -0 -0 -0 -0 -0 -0 -0 -0 -0 -0 -0 -0 -0 -0 -0 -0 -0 -0 -0 -0 -0 -0 -0 -0 -0 -0 -0 -0 -0 -0 -0 -0 -0 -0 -0 -0 -0 -0
nan nan nan nan nan nan nan nan nan nan nan nan nan nan nan nan nan nan nan nan nan nan nan nan nan nan nan nan nan nan nan nan nan nan nan nan nan nan nan nan nan nan nan nan nan nan -6 -2 -2 -3 -0 -0 -0 -0 -0 -0 -0 -0 -0 -0 -0 -0 -0 -0 -0 -0 -0 -0 -0 -0 -0 -0 -0 -0 -0 -0 -0 -0 -0 -0 -0 -0 nan nan nan nan
nan nan nan nan nan nan nan nan nan nan nan nan nan nan nan nan nan nan nan nan nan nan nan nan nan nan nan nan nan nan nan nan nan nan nan nan nan nan nan nan nan nan nan nan nan nan nan nan nan -32 -4 -6 -10 -10 -2 -5 -5 -4 -3 -7 -7 -3 -5 -3 -3 -2 -2 -0 -0 -0 -0 -0 -0 -0 -0 -0 -0 -0 nan nan nan nan nan nan nan nan
nan nan nan nan nan nan nan nan nan nan nan nan nan nan nan nan nan nan nan nan nan nan nan nan nan nan nan nan nan nan nan nan nan nan nan nan nan nan nan nan nan nan nan nan nan nan nan nan nan nan nan -16 -11 -11 -6 -2 -2 -1 -3 -1 -1 -2 -3 -1 -1 -2 nan nan nan nan -0 -0 -0 -0 nan nan nan nan nan nan nan nan nan nan nan nan
nan nan nan nan nan nan nan nan nan nan nan nan nan nan nan nan nan nan nan nan nan nan nan nan nan nan nan nan nan nan nan nan nan nan nan nan nan nan nan nan nan nan nan nan nan nan nan nan nan nan nan nan -10 -10 nan -3 -3 -3 -2 -2 -2 -2 -1 -1 -1 -1 -0 nan -0 -0 -0 nan nan nan nan nan nan nan nan nan nan nan nan nan nan nan
nan nan nan nan nan nan nan nan nan nan nan nan nan nan nan nan nan nan nan nan nan nan nan nan nan nan nan nan nan nan nan nan nan nan nan nan nan nan nan nan nan nan nan nan nan nan nan nan nan nan nan nan nan nan nan nan nan nan nan nan nan nan nan nan nan nan nan nan nan nan nan nan nan nan nan nan nan nan nan nan nan nan nan nan nan nan
nan nan nan nan nan nan nan nan nan nan nan nan nan nan nan nan nan nan nan nan nan nan nan nan nan nan nan nan nan nan nan nan nan nan nan nan nan nan nan nan nan nan nan nan nan nan nan nan nan nan nan nan nan nan nan nan nan nan nan nan nan nan nan nan nan nan nan nan nan nan nan nan nan nan nan nan nan nan nan nan nan nan nan nan nan nan
nan nan nan nan nan nan nan nan nan nan nan nan nan nan nan nan nan nan nan nan nan nan nan nan nan nan nan nan nan nan nan nan nan nan nan nan nan nan nan nan nan nan nan nan nan nan nan nan nan nan -0 nan nan nan nan nan nan nan nan nan nan nan nan nan nan nan nan nan nan nan nan nan nan nan nan nan nan nan nan nan nan nan nan nan nan nan
nan nan nan nan nan nan nan nan nan nan nan nan nan nan nan nan nan nan nan nan nan nan nan nan nan nan nan nan nan nan nan nan nan nan nan nan nan nan nan nan nan nan nan nan nan nan nan nan nan nan -0 -0 nan nan nan nan nan nan nan nan nan nan nan nan nan nan nan nan nan nan nan nan nan nan nan nan nan nan nan nan nan nan nan nan nan nan
nan nan nan nan nan nan nan nan nan nan nan nan nan nan nan nan nan nan nan nan nan nan nan nan nan nan nan nan nan nan nan nan nan nan nan nan nan nan nan nan nan nan nan nan nan nan nan nan nan nan -3 -0 -0 -0 nan nan nan nan nan nan nan nan nan nan nan nan nan nan nan nan nan nan nan nan nan nan nan nan nan nan nan nan nan nan nan nan
nan nan nan nan nan nan nan nan nan nan -0 nan nan nan nan nan nan nan nan nan nan nan nan nan nan nan nan nan nan nan nan nan nan nan nan nan nan nan nan nan nan nan nan nan nan nan nan nan nan nan nan -0 -0 -0 nan nan nan nan nan nan nan nan nan nan nan nan nan nan nan nan nan nan nan nan nan nan nan nan nan nan nan nan nan nan nan nan
nan nan nan nan nan nan nan nan nan nan nan nan nan nan nan nan nan nan nan nan nan nan nan nan nan nan nan nan nan nan nan nan nan nan nan nan nan nan nan nan nan nan nan nan nan nan nan nan nan nan nan -0 -0 -0 -0 nan nan nan nan nan nan nan nan nan nan nan nan nan nan nan nan nan nan nan nan nan nan nan nan nan nan nan nan nan nan nan
nan nan nan nan nan nan nan nan nan nan nan nan nan nan nan nan nan nan nan nan nan nan nan nan nan nan nan nan nan nan nan nan nan nan nan nan nan nan nan nan nan nan nan nan nan nan nan nan nan nan nan nan nan nan nan nan nan nan nan nan nan nan nan nan nan nan nan nan nan nan nan nan nan nan nan nan nan nan nan nan nan nan nan nan nan nan
nan nan nan nan nan nan nan nan nan nan nan nan nan nan nan nan nan nan nan nan nan nan nan nan nan nan nan nan nan nan nan nan nan nan nan nan nan nan nan nan nan nan nan nan nan nan nan nan nan nan nan nan nan nan nan nan nan nan nan -0 -0 -0 -0 -0 -0 nan nan nan nan nan nan -0 -0 -0 nan nan nan nan nan nan nan nan nan nan nan nan
nan nan nan nan nan nan nan nan nan nan nan nan nan nan nan nan nan nan nan nan nan nan nan nan nan nan nan nan nan nan nan nan nan nan nan nan nan nan nan nan nan nan nan nan nan nan nan nan nan nan nan nan nan nan nan nan nan nan nan -0 -0 -0 -0 -0 -0 -0 -0 -0 -0 -0 -0 -0 -0 -0 -0 nan -0 -0 nan nan nan nan nan nan nan nan
-1 -4 -0 -0 -0 -0 -0 -0 nan nan nan nan nan nan nan nan nan nan nan nan nan nan nan nan nan nan nan nan nan nan nan nan nan nan nan nan nan nan nan nan nan nan nan nan nan nan nan nan nan nan nan nan nan nan nan nan nan nan nan nan nan -0 -0 -0 -0 -0 -0 -0 -0 -0 -0 -0 -0 -0 -0 -0 -0 -0 nan nan nan nan nan nan nan nan
nan nan nan nan nan -0 -0 -0 -0 -0 -0 nan nan nan nan nan nan nan nan nan nan nan nan nan nan nan nan nan nan nan nan nan nan nan nan nan nan nan nan nan nan nan nan nan nan nan nan nan nan nan nan nan nan nan nan nan nan nan nan nan nan -0 -0 -0 -0 -0 -0 -0 -0 -0 -0 -0 -0 -0 -0 -0 -0 -0 -0 -0 -0 nan nan nan nan nan
nan nan nan nan nan nan nan nan -0 -0 nan nan nan nan nan nan nan nan nan nan nan nan nan nan nan nan nan nan nan nan nan nan nan nan nan nan nan nan nan nan nan nan nan nan nan nan nan nan nan nan nan nan nan nan nan nan nan nan nan nan nan nan -0 -0 -0 -0 -0 -0 -0 -0 -0 -0 -0 -0 -0 -0 -0 -0 -0 -0 -0 -0 nan nan nan nan
nan nan nan nan nan nan nan nan nan nan nan nan nan nan nan nan nan nan nan nan nan nan nan nan nan nan nan nan nan nan nan nan nan nan nan nan nan nan nan nan nan nan nan nan nan nan nan nan nan nan nan nan nan nan nan nan nan nan nan nan nan nan nan nan nan nan -0 -0 -0 -0 -0 -0 -0 -0 -0 -0 -0 -0 -0 -0 -0 nan nan nan nan nan
nan nan nan nan nan nan nan nan nan nan nan nan nan nan nan nan nan nan nan nan nan nan nan nan nan nan nan nan nan nan nan nan nan nan nan nan nan nan nan nan nan nan nan nan nan nan nan nan nan nan nan nan nan nan nan nan nan nan nan nan nan nan nan nan nan nan nan -0 -0 -0 -0 -0 -0 -0 -0 -0 -0 -0 -0 -0 -0 nan nan nan nan nan
nan nan nan nan nan nan nan nan nan nan nan nan nan nan nan nan nan nan nan nan nan nan nan nan nan nan nan nan nan nan nan nan nan nan nan nan nan nan nan nan nan nan nan nan nan nan nan nan nan nan nan nan nan nan nan nan nan nan nan nan nan nan nan nan nan nan nan nan nan nan nan nan nan nan nan nan -0 -0 -0 -0 -0 -1 nan nan nan nan
nan nan nan nan nan nan nan nan nan nan nan nan nan nan nan nan nan nan nan nan nan nan nan nan nan nan nan nan nan nan nan nan nan nan nan nan nan nan nan nan nan nan nan nan nan nan nan nan nan nan nan nan nan nan nan nan nan nan nan nan nan nan nan nan nan nan nan nan nan nan nan nan nan nan nan nan nan nan -0 -0 -0 -0 nan nan nan nan
nan nan nan nan nan nan nan nan nan nan nan nan nan nan nan nan nan nan nan nan nan nan nan nan nan nan nan nan nan nan nan nan nan nan nan nan nan nan nan nan nan nan nan nan nan nan nan nan nan nan nan nan nan nan nan nan nan nan nan nan nan nan nan nan nan nan nan nan nan nan nan nan nan nan nan nan nan nan nan nan nan nan nan nan nan nan
nan nan nan nan nan nan nan nan nan nan nan nan nan nan nan nan nan nan nan nan nan nan nan nan nan nan nan nan nan nan nan nan nan nan nan nan nan nan nan nan nan nan nan nan nan nan nan nan nan nan nan nan nan nan nan nan nan nan nan nan nan nan nan nan nan nan nan nan nan nan nan nan nan nan nan nan nan nan nan nan nan nan nan nan nan nan
nan nan nan nan nan nan nan nan nan nan nan nan nan nan nan nan nan nan nan nan nan nan nan nan nan nan nan nan nan nan nan nan nan nan nan nan nan nan nan nan nan nan nan nan nan nan nan nan nan nan nan nan nan nan nan nan nan nan nan nan nan nan nan nan nan nan nan nan nan nan nan nan nan nan nan nan nan nan nan nan nan nan nan nan nan nan
nan nan nan nan nan nan nan nan nan nan nan nan nan nan nan nan nan nan nan nan nan nan nan nan nan nan nan nan nan nan nan nan nan nan nan nan nan nan nan nan nan nan nan nan nan nan nan nan nan nan nan nan nan nan nan nan nan nan nan nan nan nan nan nan nan nan nan nan nan nan nan nan nan nan nan nan nan nan nan nan nan nan nan nan nan nan
nan nan nan nan nan nan nan nan nan nan nan nan nan nan nan nan nan nan nan nan nan nan nan nan nan nan nan nan nan nan nan nan nan nan nan nan nan nan nan nan nan nan nan nan nan nan nan nan nan nan nan nan nan nan nan nan nan nan nan nan nan nan nan nan nan nan nan nan nan nan nan nan nan nan nan nan nan nan nan nan nan nan nan nan nan nan
nan nan nan nan nan nan nan nan nan nan nan nan nan nan nan nan nan nan nan nan nan nan nan nan nan nan nan nan nan nan nan nan nan nan nan nan nan nan nan nan nan nan nan nan nan nan nan nan nan nan nan nan nan nan nan nan nan nan nan nan nan nan nan nan nan nan nan nan nan nan nan nan nan nan nan nan nan nan nan nan nan nan nan nan nan nan
nan nan nan nan nan nan nan nan nan nan nan nan nan nan nan nan nan nan nan nan nan nan nan nan nan nan nan nan nan nan nan nan nan nan nan nan nan nan nan nan nan nan nan nan nan nan nan nan nan nan -3 nan nan nan nan nan nan nan -0 nan nan nan nan nan nan nan nan nan nan nan nan nan nan nan nan nan nan nan nan nan nan nan nan nan nan nan
nan nan nan nan nan nan nan nan nan nan nan nan nan nan nan nan nan nan nan nan nan nan nan nan nan nan nan nan nan nan nan nan nan nan nan nan nan nan nan nan nan nan nan nan nan nan nan nan nan nan -12 nan -7 -7 -3 nan nan -4 -0 nan nan nan nan nan nan nan nan nan nan nan nan nan nan nan nan nan nan nan nan nan nan nan nan nan nan nan
nan nan nan nan nan nan nan nan nan nan nan nan nan nan nan nan nan nan nan nan nan nan nan nan nan nan nan nan nan nan nan nan nan nan nan nan nan nan nan nan nan nan nan nan nan nan nan nan nan nan nan nan nan nan nan nan nan nan nan nan nan nan nan nan nan nan nan nan nan nan nan nan nan nan nan nan nan nan nan nan nan nan nan nan nan nan
nan nan nan nan nan nan nan nan nan nan nan nan nan nan nan nan nan nan nan nan nan nan nan nan nan nan nan nan nan nan nan nan nan nan nan nan nan nan nan nan nan nan nan nan nan nan nan nan nan nan nan nan nan nan nan nan nan nan nan nan nan nan nan nan nan nan nan nan nan nan nan nan nan nan nan nan nan nan nan nan nan nan nan nan nan nan
nan nan nan nan nan nan nan nan nan nan nan nan nan nan nan nan nan nan nan nan nan nan nan nan nan nan nan nan nan nan nan nan nan nan nan nan nan nan nan nan nan nan nan nan nan nan nan nan nan nan nan nan nan nan nan nan nan nan nan nan nan nan nan nan nan nan nan nan nan nan nan nan nan nan nan nan nan nan nan nan nan nan nan nan nan nan
nan nan nan nan nan nan nan nan nan nan nan nan nan nan nan nan nan nan nan nan nan nan nan nan nan nan nan nan nan nan nan nan nan nan nan nan nan nan nan nan nan nan nan nan nan nan nan nan nan nan nan nan nan nan nan nan nan nan nan nan nan nan nan nan nan nan nan nan nan nan nan nan nan nan nan nan nan nan nan nan nan nan nan nan nan nan
nan nan nan nan nan nan nan nan nan nan nan nan nan nan nan nan nan nan nan nan nan nan nan nan nan nan nan -4 nan nan nan nan nan nan nan nan nan nan nan nan nan nan nan nan nan nan nan nan nan nan nan nan nan nan nan nan nan nan nan nan nan nan nan nan nan nan nan nan nan nan nan nan nan nan nan nan nan nan nan nan nan nan nan nan nan nan
nan nan nan nan nan nan nan nan nan nan nan nan nan nan nan nan nan nan nan nan nan nan nan nan nan nan nan nan nan nan nan nan nan nan nan nan nan nan nan nan nan nan nan nan nan nan nan nan nan nan nan nan nan nan nan nan nan nan nan nan nan nan nan nan nan nan nan nan nan nan nan nan nan nan nan nan nan nan nan nan nan nan nan nan nan nan
nan nan nan nan nan nan nan nan nan nan nan nan nan nan nan nan nan nan nan nan nan nan nan nan nan nan nan nan nan nan nan nan nan nan nan nan nan nan nan nan nan nan nan nan nan nan nan nan nan nan nan nan nan nan nan nan nan nan nan nan nan nan nan nan nan nan nan nan nan nan nan nan nan nan nan nan nan nan nan nan nan nan nan nan nan nan
nan nan nan nan nan nan nan nan nan nan nan nan nan nan nan nan -7 -7 nan nan nan nan nan nan nan nan nan nan nan nan nan nan nan nan nan nan nan nan nan nan nan nan nan nan nan nan nan nan nan nan nan nan nan nan nan nan nan nan nan nan nan nan nan nan nan nan nan nan nan nan nan nan nan nan nan nan nan nan nan nan nan nan nan nan nan nan
nan nan nan nan nan nan nan nan nan nan nan nan nan nan nan nan nan nan nan nan nan nan nan nan nan nan nan nan nan nan nan nan nan nan nan nan nan nan nan nan nan nan nan nan nan nan nan nan nan nan nan nan nan nan nan nan nan nan nan nan nan nan nan nan nan nan nan nan nan nan nan nan nan nan nan nan nan nan nan nan nan nan nan nan nan nan
nan nan nan nan nan nan nan nan nan nan nan nan nan nan nan nan nan nan nan nan nan nan nan nan nan nan nan nan nan nan nan nan nan nan nan nan nan nan nan nan nan nan nan nan nan nan nan nan nan nan nan nan nan nan nan nan nan nan nan nan nan nan nan nan nan nan nan nan nan nan nan nan nan nan nan nan -2 -2 nan nan nan nan nan nan nan nan
Wind_Speed
2 2 3 4 4 4 5 7 7 6 6 6 6 6 7 7 8 8 11 10 10 9 8 8 9 10 12 17 20 21 22 22 23 24 24 25 25 26 27 26 26 26 25 25 25 25 24 24 24 24 23 23 23 22 22 22 23 23 24 25 25 26 26 27 27 27 27 27 26 25 25 24 24 24 23 23 23 23 24 24 24 24 23 23 22 20
2 2 3 4 4 4 4 6 7 6 6 6 6 6 7 7 7 7 8 9 10 9 8 8 8 9 10 14 18 21 21 21 21 22 22 23 23 24 24 24 24 23 23 23 22 22 22 21 21 21 21 21 21 21 22 22 22 23 23 24 24 24 25 25 25 25 25 25 24 24 24 24 24 24 23 23 22 22 22 23 23 23 23 22 21 20
1 2 2 3 3 4 3 5 5 5 6 5 6 6 7 7 6 6 6 7 8 8 8 8 8 8 9 11 15 20 20 21 21 21 21 21 21 22 22 22 22 22 21 21 20 20 19 19 19 19 19 19 19 20 20 20 21 22 22 23 23 23 23 23 23 23 23 23 23 23 23 23 23 23 23 23 22 22 22 21 21 21 21 21 20 19
1 1 2 2 2 3 3 3 3 4 4 4 5 5 6 5 5 5 5 6 6 7 7 8 8 8 7 9 12 17 20 20 20 20 20 20 20 20 21 20 20 20 20 19 19 18 18 17 17 17 17 17 17 18 18 19 19 20 21 21 22 22 22 22 22 21 21 21 21 21 22 22 22 22 22 22 22 21 21 21 20 20 20 19 19 18
1 1 1 1 1 2 2 2 2 2 3 3 3 4 4 4 4 4 4 5 5 6 6 7 7 7 6 7 10 14 18 18 19 19 19 20 20 20 20 19 19 19 18 18 17 17 17 16 16 16 16 16 16 16 17 17 18 19 19 20 20 20 20 20 20 20 20 20 20 20 21 21 21 21 21 21 21 21 20 20 19 19 18 17 17 17
0 0 1 1 1 1 1 1 1 2 2 2 2 3 3 3 3 3 3 4 4 4 4 5 5 6 6 6 9 12 15 16 17 17 18 18 19 19 19 19 18 18 17 17 16 16 16 15 15 15 15 15 15 15 15 16 16 17 17 18 18 18 18 18 18 18 19 19 19 19 19 20 20 20 20 20 20 20 19 18 18 17 17 16 16 15
1 1 1 1 1 1 1 1 1 1 1 2 2 2 2 2 2 3 3 3 3 3 3 3 3 4 4 5 7 9 11 12 14 14 15 16 17 18 18 18 18 17 17 16 16 15 15 15 14 14 14 14 14 14 14 14 15 15 16 16 16 16 16 16 16 17 17 17 18 18 18 18 18 18 19 19 19 18 18 17 17 16 15 15 14 14
1 1 1 1 1 1 1 1 1 1 1 1 1 2 2 2 2 2 3 3 3 3 2 3 3 3 3 4 5 6 6 8 8 9 11 12 13 14 15 16 16 16 16 16 16 15 15 14 14 14 14 13 13 13 13 13 13 14 14 14 14 14 14 14 15 15 15 16 16 17 17 17 17 17 17 17 17 17 17 16 15 15 14 14 13 13
1 1 1 1 0 0 1 1 1 1 1 1 1 1 2 2 2 2 3 3 3 3 3 3 3 3 3 3 3 4 5 5 5 6 7 7 8 10 12 13 14 15 15 15 15 15 15 14 14 14 13 13 12 12 12 12 12 12 12 12 12 12 12 13 13 14 14 15 15 16 16 16 17 17 16 16 16 16 15 15 14 14 13 13 13 12
0 1 1 1 0 0 0 1 1 1 1 1 1 1 1 2 2 2 3 3 3 3 3 4 4 4 4 4 4 4 4 6 7 8 9 8 9 9 10 10 11 12 14 14 14 14 14 13 13 13 13 12 12 11 11 11 11 11 10 10 10 10 11 11 12 12 13 14 14 15 16 16 16 16 16 15 15 15 14 14 13 13 12 12 12 12
0 0 0 1 1 0 0 1 1 1 2 2 1 1 1 2 2 2 2 3 3 3 3 4 4 4 4 4 4 4 4 4 6 7 9 10 10 10 9 9 9 10 12 12 12 12 12 12 12 12 11 11 10 9 9 9 8 8 8 8 8 9 9 10 11 11 12 12 13 14 15 15 16 16 15 15 14 14 13 13 12 12 12 11 11 11
0 0 0 0 1 1 1 1 1 1 2 2 2 2 2 2 1 1 2 2 2 2 3 3 3 4 4 4 4 4 4 3 4 4 5 7 7 7 7 7 7 8 8 9 9 10 11 11 11 11 10 9 9 8 8 7 7 7 7 7 7 8 9 9 10 10 11 11 12 13 14 14 15 15 15 15 14 14 13 13 12 12 11 11 11 10
0 0 0 1 1 1 1 2 2 2 2 2 2 1 1 1 1 1 1 1 1 1 2 2 3 3 4 4 4 4 3 3 3 3 4 5 5 5 4 4 4 5 5 5 5 6 7 8 9 9 9 9 9 9 9 8 8 8 8 8 8 8 9 9 10 10 10 11 11 12 13 13 14 14 14 14 14 14 13 13 12 12 11 10 10 9
1 1 1 1 1 1 1 1 1 1 1 1 0 1 1 1 1 1 1 1 1 2 2 2 2 2 3 4 4 4 4 3 3 3 4 4 4 4 3 3 3 4 4 4 4 5 6 5 5 6 8 8 8 8 8 8 8 8 8 8 8 9 9 9 10 10 10 11 11 12 12 13 13 13 13 13 13 13 13 12 12 11 11 10 9 9
0 1 1 1 1 1 1 0 1 1 0 1 1 1 0 1 1 1 1 0 1 2 2 2 2 2 2 3 4 5 5 3 3 3 4 4 4 4 4 3 3 4 4 4 4 5 6 5 4 5 6 8 9 9 10 10 10 11 10 10 10 10 10 10 10 10 10 10 11 11 11 12 12 12 12 12 12 12 12 11 11 10 10 9 8 8
1 1 2 1 0 1 1 1 0 0 1 1 0 0 1 1 1 1 1 0 1 1 2 2 2 2 2 2 3 4 5 4 3 3 3 4 4 5 5 3 3 4 4 4 4 4 5 4 4 5 6 10 12 13 13 13 13 13 13 13 12 12 12 12 11 11 11 11 11 11 11 11 11 11 11 11 11 11 10 10 9 9 8 8 7 7
1 1 2 1 1 1 1 1 1 1 1 1 0 0 1 1 0 0 1 0 1 1 2 2 2 1 1 2 3 4 5 4 3 2 3 3 4 4 5 4 3 3 4 4 4 4 4 4 3 4 6 10 13 14 14 14 14 14 14 14 13 13 13 13 12 12 12 11 11 10 10 10 10 10 10 10 9 9 9 8 8 8 7 7 6 6
1 1 2 1 1 1 1 1 1 1 1 0 0 0 1 0 0 1 1 1 1 1 1 1 1 1 1 1 2 3 4 3 2 2 2 3 3 4 4 3 3 3 3 4 4 4 4 4 3 4 8 11 13 13 14 14 14 14 14 14 13 13 13 12 12 12 11 11 10 10 9 9 9 9 9 8 8 8 7 7 7 6 6 5 5 5
1 1 2 2 1 1 1 1 1 1 1 1 1 1 1 1 1 1 1 1 1 1 1 1 1 1 1 1 2 3 3 2 2 1 2 2 3 4 4 4 3 3 3 3 4 4 4 4 4 7 11 12 13 13 13 13 13 13 13 13 13 12 12 12 11 11 10 9 9 8 8 8 8 8 7 7 7 7 6 6 6 5 5 5 4 4
2 1 2 2 2 1 0 1 1 2 2 2 2 2 1 1 1 1 1 1 1 1 2 2 1 1 0 1 2 3 3 2 1 1 2 1 2 3 4 4 3 3 3 3 3 4 4 4 4 6 10 12 12 13 13 13 13 13 13 12 12 12 11 11 10 9 9 8 8 7 7 7 7 7 6 6 6 6 5 5 5 5 5 4 4 4
2 1 2 2 2 2 1 1 2 2 2 2 2 2 1 1 1 1 1 1 1 1 1 2 1 1 1 1 1 2 3 2 1 1 1 1 1 2 3 3 3 3 3 3 3 3 4 4 4 4 7 10 12 12 12 12 12 12 12 11 11 11 10 10 9 8 8 7 7 6 6 6 6 6 6 5 5 5 5 5 5 5 5 5 5 5
2 1 2 3 2 2 1 2 2 3 3 3 2 2 1 1 1 1 1 1 1 1 1 2 2 2 2 1 1 1 1 1 0 1 2 1 1 2 3 2 2 2 3 3 3 3 3 4 4 5 8 11 12 12 12 11 11 11 11 10 10 10 9 9 8 8 7 7 6 6 6 5 5 5 5 5 5 5 5 5 5 5 5 5 5 5
3 2 2 3 3 2 2 2 2 2 2 3 3 3 2 2 2 2 2 2 2 2 2 2 2 1 1 2 1 1 1 1 1 1 2 2 0 1 2 2 2 1 2 2 2 3 3 3 4 5 7 11 12 12 11 11 10 10 10 9 9 9 8 8 8 7 7 6 6 5 5 5 5 5 5 5 5 5 5 5 5 5 5 5 5 5
3 2 2 3 3 2 2 2 2 1 1 2 2 2 2 2 2 2 2 2 2 2 2 1 1 0 0 0 1 1 3 3 2 1 2 2 1 1 2 2 2 2 1 1 2 2 2 2 3 4 5 9 11 11 11 10 10 9 9 8 8 8 8 7 7 7 6 6 6 5 5 5 5 5 5 5 5 5 5 5 5 5 5 5 5 5
2 2 2 2 3 3 3 3 3 3 2 2 2 2 2 2 3 3 2 2 2 2 2 2 2 2 2 2 2 2 3 3 2 2 1 2 1 1 1 1 2 2 2 2 2 2 1 1 2 3 3 6 9 10 11 10 10 9 8 8 8 8 8 7 7 7 6 6 6 5 5 5 5 5 5 5 5 5 4 4 4 5 5 5 5 5
3 2 2 3 4 5 6 6 6 6 5 4 3 2 2 2 2 2 2 2 2 2 3 3 2 1 2 1 2 2 2 3 3 2 1 2 1 0 1 1 1 1 2 2 2 2 1 1 1 2 3 4 6 8 10 10 10 9 9 8 8 8 8 8 7 7 6 6 6 6 5 5 5 5 5 5 5 4 4 4 4 5 5 5 5 5
10 10 10 9 9 8 8 8 8 8 7 6 4 3 2 2 2 2 2 2 2 2 3 3 2 1 1 1 1 2 2 2 2 2 1 2 1 0 1 1 1 2 2 2 2 1 1 0 1 2 2 2 3 5 9 10 10 10 9 9 9 8 8 8 8 7 7 6 6 6 6 6 5 5 5 5 5 4 4 4 4 5 5 5 4 3
13 13 14 13 12 11 10 10 10 10 10 9 8 6 3 3 3 2 1 0 1 2 3 2 2 1 1 1 1 2 2 2 2 2 0 1 1 1 2 1 1 1 2 2 2 2 1 1 1 1 2 2 2 3 6 8 9 9 9 9 9 9 9 9 8 8 7 7 7 6 6 6 6 6 5 5 5 5 4 4 4 5 4 3 2 1
11 12 12 12 12 11 11 10 10 11 12 12 11 9 5 3 3 2 2 1 2 3 3 2 2 1 1 1 1 2 2 2 2 2 0 1 1 0 2 1 2 2 2 2 1 1 1 1 1 1 2 3 3 3 4 5 6 7 7 9 9 9 9 9 9 8 8 7 7 7 7 7 7 6 6 5 5 5 4 4 4 4 3 2 2 1
8 9 9 10 9 9 8 7 8 10 12 13 12 10 6 4 3 2 2 2 3 3 3 2 1 1 1 0 1 2 2 3 3 2 1 2 1 1 2 2 2 2 2 2 2 2 2 1 1 1 2 3 3 3 3 3 3 4 4 6 7 8 9 9 9 9 8 8 8 8 8 7 7 7 6 6 5 5 5 4 4 3 2 2 1 1
6 6 6 6 6 6 5 5 6 7 9 10 10 8 6 4 3 2 1 2 3 3 3 2 2 1 1 2 2 1 1 3 3 2 2 2 1 0 1 1 1 1 1 1 1 1 2 2 2 2 2 3 3 3 3 3 3 3 3 3 4 6 8 9 9 8 8 8 8 8 8 8 8 7 7 6 6 5 5 5 4 3 2 1 1 1
4 4 4 4 4 4 4 4 4 5 6 6 6 6 5 5 4 3 2 2 2 3 3 3 2 1 1 2 2 1 2 3 2 2 2 2 1 1 1 0 0 1 1 1 1 1 1 2 2 2 3 3 3 3 3 3 2 2 3 3 3 4 7 7 7 7 7 7 7 8 8 8 8 8 7 7 6 6 6 6 5 3 2 1 1 0
4 3 3 4 3 3 3 3 3 4 4 4 4 4 4 4 4 4 3 2 2 2 3 3 2 2 1 1 1 2 2 3 3 2 2 2 2 1 1 0 0 0 0 1 1 1 1 1 2 2 3 3 3 3 3 3 2 2 2 3 3 3 5 5 5 5 5 5 6 6 7 7 7 7 7 7 6 6 6 6 6 4 2 1 1 0
3 4 4 3 3 3 3 3 4 4 4 4 4 4 4 4 4 4 3 2 1 1 2 3 3 3 2 1 0 1 3 3 3 2 1 2 2 1 1 1 0 0 0 1 1 1 1 1 2 2 3 2 2 2 2 2 2 2 1 1 2 3 4 4 4 4 4 4 3 4 4 4 5 6 6 6 6 7 7 7 7 6 4 2 0 0
3 3 3 3 3 3 3 3 4 4 4 3 3 3 3 3 3 3 3 2 2 1 1 2 3 3 3 2 1 1 2 3 3 2 1 2 3 2 1 1 1 1 1 0 0 0 0 1 2 2 3 3 2 2 2 2 2 2 2 2 2 2 3 2 2 2 3 3 3 3 3 2 3 3 4 5 6 7 7 7 7 6 6 4 2 1
2 3 3 3 3 3 3 3 3 3 3 3 3 3 3 3 3 3 2 2 1 1 1 0 1 2 3 3 3 2 2 3 2 1 0 2 2 2 1 1 2 2 2 1 0 0 1 1 2 3 3 3 2 2 2 2 2 2 2 2 2 2 2 1 1 1 2 2 3 3 2 2 2 2 3 5 6 7 7 7 6 6 5 5 4 3
2 2 2 2 2 2 3 3 3 3 3 3 3 3 2 2 2 2 2 1 1 1 1 1 1 1 1 2 2 3 3 2 1 1 0 1 2 2 1 1 2 2 2 1 0 1 2 2 2 3 2 2 2 2 3 3 2 2 2 2 2 2 2 1 1 0 1 2 2 3 2 2 2 2 3 5 6 6 6 6 6 5 5 5 5 5
1 1 1 1 1 2 2 2 2 2 2 2 3 3 2 2 1 1 1 1 1 1 1 1 1 1 1 1 2 2 2 1 1 1 1 1 2 2 2 1 1 2 1 1 1 1 2 2 3 3 2 2 2 3 4 4 4 3 3 2 2 2 2 1 1 1 1 2 2 3 3 2 2 2 3 3 3 3 3 3 3 4 4 4 5 5
1 1 1 1 1 1 1 2 2 2 2 2 3 3 2 2 1 1 1 0 0 0 0 1 1 1 2 2 2 2 2 2 1 1 1 2 2 2 2 1 1 1 1 1 1 1 1 1 2 2 3 3 4 4 3 3 4 4 4 3 2 1 2 1 1 1 1 2 2 3 3 2 2 2 2 2 2 2 2 2 2 2 2 2 3 4
1 1 1 1 1 1 2 2 2 2 2 3 3 3 2 1 1 1 1 1 0 0 0 1 1 1 1 1 1 1 1 1 1 1 2 2 2 2 1 1 1 1 1 0 1 1 1 1 1 2 3 3 4 4 4 3 4 5 6 4 3 2 3 2 2 1 1 1 1 2 2 2 2 2 2 2 2 2 2 2 2 2 1 1 1 2
1 1 1 2 2 2 2 2 2 2 2 2 2 2 2 2 2 2 3 2 2 2 2 2 2 2 2 2 2 2 1 1 1 2 2 3 3 2 1 1 1 1 1 0 1 1 2 1 1 2 2 2 3 4 5 4 5 6 7 5 4 4 5 4 2 1 1 1 1 1 2 3 4 4 3 3 2 2 2 2 2 3 2 1 1 0
1 1 1 1 2 2 2 2 2 2 1 1 1 2 2 2 2 2 2 3 3 3 3 3 3 3 3 4 4 3 3 2 1 1 2 3 3 2 1 1 1 1 1 1 1 1 2 2 2 2 2 2 3 4 4 4 4 5 5 4 5 5 5 4 2 1 1 1 2 2 2 3 3 3 3 3 3 3 3 3 3 4 3 2 2 2
1 1 1 2 2 2 2 2 2 2 1 1 2 2 2 1 1 1 1 1 2 2 2 2 2 2 2 2 3 4 4 3 2 1 1 2 3 3 2 2 2 2 2 1 1 1 1 2 2 2 2 2 3 3 5 5 4 4 3 4 4 4 3 3 2 2 2 2 3 2 2 2 3 3 3 4 3 3 2 3 5 5 4 3 2 3
1 1 1 1 2 2 2 2 1 1 1 1 1 2 2 1 1 1 1 1 1 1 1 1 1 1 1 1 2 2 3 3 3 2 1 1 2 2 2 2 2 3 2 2 1 1 1 1 2 2 2 2 3 3 4 5 5 4 4 3 3 3 3 3 3 3 4 4 4 3 2 2 2 2 3 3 3 3 2 2 3 3 3 3 3 3
1 1 1 1 1 1 1 1 1 1 1 1 1 1 2 1 1 1 1 1 1 1 1 1 1 1 1 2 2 2 2 2 2 3 3 3 3 2 1 1 1 2 2 2 2 1 1 2 2 2 2 2 3 3 4 4 5 5 5 4 4 4 4 4 4 4 4 5 5 4 2 1 1 2 3 3 3 3 2 3 3 4 4 3 3 4
1 1 1 1 1 1 1 1 2 1 1 1 1 1 1 1 1 1 1 1 1 1 1 1 1 1 2 2 2 2 2 2 2 3 3 3 3 3 2 1 1 1 1 2 2 2 2 2 2 3 2 2 3 3 4 4 4 4 4 4 4 4 4 4 4 4 4 4 4 4 3 1 1 1 3 3 3 3 3 3 4 4 4 4 4 4
1 0 1 1 1 1 1 2 2 1 1 2 2 2 2 1 1 1 1 1 1 1 1 1 1 1 2 2 2 2 2 3 3 3 3 3 3 3 3 2 2 1 1 2 2 3 3 3 3 3 3 3 4 4 4 4 4 4 4 4 3 3 4 4 4 4 3 3 3 3 2 1 1 2 3 3 3 3 3 3 4 4 4 4 4 4
1 0 0 0 1 1 1 1 1 1 1 2 2 2 2 2 2 2 1 1 1 1 1 1 1 1 2 2 2 2 2 2 3 3 3 3 3 3 3 2 2 2 2 2 3 3 4 4 4 4 3 3 3 4 4 4 4 4 4 3 3 3 4 5 4 4 3 3 3 3 1 1 2 3 3 3 4 4 4 4 4 4 4 4 4 5
1 1 1 1 1 1 1 1 1 1 1 2 2 2 2 2 3 3 1 1 1 1 1 1 1 2 2 2 2 2 2 2 2 2 2 2 2 2 3 3 3 2 2 2 2 2 3 3 4 5 5 5 4 4 5 5 4 3 3 3 3 3 4 5 5 4 3 3 3 2 2 2 2 2 2 3 4 5 5 4 4 4 4 4 4 4
1 1 1 1 1 1 2 2 2 2 2 2 2 2 2 2 2 1 1 1 1 1 1 2 2 2 2 2 2 2 2 2 2 2 2 2 2 2 2 2 2 3 3 3 2 2 2 3 3 4 6 7 7 6 5 5 4 3 3 3 3 3 3 4 4 4 3 3 3 3 2 2 2 2 2 3 5 6 6 5 5 4 4 3 4 4
1 1 2 2 2 2 2 2 2 2 3 3 3 2 2 2 2 1 1 1 1 1 2 2 2 2 2 2 3 3 3 2 2 2 2 2 2 2 2 2 2 2 2 2 2 2 2 2 2 3 4 7 8 8 5 4 3 3 3 3 2 2 3 3 4 4 3 3 3 2 2 2 2 2 2 3 5 6 6 6 5 5 4 3 3 3
Wind_Direction
14 360 354 360 11 23 23 17 17 19 17 13 11 8 5 8 12 16 19 20 20 19 18 18 21 27 35 42 46 49 53 56 59 61 61 60 60 59 58 56 53 51 49 48 48 48 49 50 52 53 54 56 58 61 65 68 72 74 77 79 81 82 84 86 88 89 90 92 92 93 93 92 92 91 90 90 91 91 92 93 94 94 93 92 90 88
15 8 4 6 17 28 28 18 19 21 19 14 10 7 6 9 11 13 14 18 20 21 19 15 15 20 27 37 43 46 50 53 57 60 61 62 63 64 63 62 61 58 55 52 51 50 51 53 54 56 57 58 60 61 62 65 67 70 72 74 76 78 81 83 85 87 89 91 92 93 93 93 92 91 90 89 88 88 88 89 91 92 93 93 93 92
15 16 11 10 21 31 31 19 18 20 21 15 10 6 6 11 14 14 12 14 17 19 20 17 15 15 20 30 38 42 45 49 53 56 58 61 63 64 65 65 65 63 61 58 56 54 52 53 55 58 60 62 64 65 65 66 67 68 70 71 73 75 77 79 81 84 86 88 90 91 92 92 92 91 90 88 87 86 85 86 87 89 90 92 93 93
17 25 12 10 24 33 32 19 15 15 18 14 8 6 8 15 17 15 11 11 14 17 19 19 17 16 17 23 31 36 40 44 48 51 54 57 59 61 63 64 65 65 65 63 61 58 56 55 55 57 60 63 66 68 70 70 71 71 72 72 73 74 75 76 78 80 82 84 85 87 88 88 89 89 88 88 87 86 85 85 85 86 87 89 90 92
16 19 356 7 25 30 20 10 7 8 11 11 9 8 12 16 15 11 7 9 14 17 19 19 19 19 19 20 25 30 35 39 43 46 50 53 55 57 58 59 61 63 65 65 65 63 61 59 57 57 59 61 65 68 71 73 75 75 76 77 77 78 78 79 80 81 81 83 84 85 86 86 87 87 88 87 87 87 86 86 86 87 88 88 90 91
281 319 312 347 8 7 351 353 356 359 3 9 10 11 14 14 12 9 6 7 11 15 17 18 19 21 23 23 25 28 30 33 37 41 46 50 53 54 55 56 56 57 59 62 64 65 65 64 62 60 60 61 63 66 69 73 75 77 79 81 82 83 84 85 86 86 87 88 88 89 89 89 89 90 90 90 90 90 90 90 90 91 92 93 93 94
204 267 293 314 317 318 323 332 346 357 3 3 5 8 9 9 11 10 6 2 2 4 7 12 17 21 25 27 27 27 26 28 31 35 40 47 51 54 56 56 55 54 55 56 59 61 64 65 65 64 62 62 62 64 67 71 74 77 80 82 84 87 89 90 92 93 93 95 95 94 94 94 94 94 94 94 94 94 95 95 96 97 98 99 100 100
176 238 280 294 305 312 318 320 341 7 17 4 4 4 5 6 9 8 4 360 357 354 352 357 5 14 20 23 25 26 25 25 25 29 34 41 47 53 57 59 59 58 57 56 56 57 59 62 63 64 64 63 63 63 65 68 71 75 78 81 84 88 90 93 95 96 97 98 98 98 98 97 96 96 96 96 97 98 98 99 100 102 104 105 106 106
157 193 260 264 272 300 320 315 333 5 35 22 10 4 2 3 6 10 12 9 4 359 355 357 1 5 7 8 13 23 30 31 30 30 31 33 40 49 56 60 63 63 63 61 60 59 59 60 62 63 63 63 62 61 61 63 66 70 74 78 82 86 90 93 95 97 98 99 100 99 99 99 98 97 97 98 98 100 101 103 105 106 108 109 109 110
142 181 240 272 266 164 155 292 315 339 26 29 23 15 21 10 10 15 26 18 10 5 5 8 8 6 3 2 5 15 28 35 38 39 37 35 40 48 52 57 63 67 70 70 69 68 67 67 67 66 68 67 65 63 63 62 63 66 70 73 78 83 88 91 94 96 97 99 100 101 101 101 101 100 100 100 101 102 103 104 106 107 108 109 110 111
298 263 251 302 319 337 147 268 293 324 16 29 26 21 35 34 28 27 37 27 16 10 12 15 15 12 7 2 2 6 18 29 33 33 32 31 36 43 46 50 57 65 71 74 78 81 82 82 81 81 82 82 81 80 78 75 74 76 77 79 83 87 88 91 94 95 97 100 101 103 104 104 104 104 104 104 104 104 104 103 103 104 105 106 108 110
218 263 321 336 342 346 345 322 325 349 27 38 36 25 15 20 26 35 50 43 25 13 12 16 19 19 16 6 360 359 7 23 29 28 24 23 22 24 32 37 43 49 57 65 74 83 91 96 99 102 104 109 111 111 113 112 111 110 109 106 104 102 99 98 98 99 100 102 103 104 105 106 107 107 108 107 107 106 105 103 101 100 100 101 103 105
303 326 29 21 12 3 355 352 358 11 26 44 61 64 8 351 359 16 40 46 8 353 356 9 19 22 22 15 6 358 357 12 28 35 31 24 14 8 10 22 26 27 32 41 47 57 76 91 99 104 109 115 120 124 130 130 130 130 128 122 117 114 108 105 104 104 103 104 104 104 104 105 106 107 108 108 107 106 105 103 101 99 97 97 98 100
359 14 35 26 10 357 354 15 29 31 18 43 123 172 228 310 351 9 20 346 327 334 343 355 7 17 24 21 13 4 354 359 17 34 39 30 15 2 355 17 23 22 24 29 27 26 30 46 66 82 88 92 102 111 109 114 116 113 107 105 105 103 100 101 100 99 99 100 100 100 101 101 102 103 104 104 104 103 102 101 99 97 96 95 95 96
86 66 68 51 4 323 314 12 55 53 308 247 225 220 280 349 11 25 39 338 332 344 356 352 352 359 16 23 16 8 358 356 11 32 39 27 12 360 351 10 23 28 27 31 25 17 14 22 37 53 59 63 67 70 72 75 75 75 76 76 77 79 82 84 85 86 87 88 89 91 92 95 96 98 99 99 99 99 98 97 97 96 95 95 95 95
138 110 113 125 213 271 266 225 181 200 256 263 257 108 66 38 31 43 80 357 349 13 29 23 12 1 354 15 24 20 6 357 4 25 39 23 9 358 350 5 25 34 28 29 21 10 2 9 28 49 60 63 65 66 67 68 67 66 66 67 68 69 71 74 76 77 79 80 82 83 86 88 90 92 93 94 94 94 94 94 95 95 95 95 96 97
138 124 130 135 176 248 258 238 220 222 249 279 310 53 96 104 101 87 84 60 46 51 58 63 58 37 350 355 20 25 15 359 354 10 38 23 8 355 348 1 26 38 28 26 17 5 357 359 18 48 65 65 65 66 65 65 64 63 62 63 63 64 66 68 70 72 73 75 77 78 80 82 84 86 87 88 89 89 90 91 91 92 94 95 96 98
145 144 139 143 175 219 245 240 234 232 241 269 336 12 50 86 104 97 76 66 62 64 63 70 77 77 38 349 359 10 13 355 343 356 40 29 8 352 346 355 18 37 34 24 12 1 354 350 11 49 69 64 63 63 63 62 61 60 59 59 59 60 61 63 65 67 69 70 72 73 75 76 78 79 80 81 83 84 85 86 87 88 90 92 94 95
162 164 152 162 178 203 230 230 221 211 195 182 156 113 53 16 37 63 66 67 75 85 94 86 85 85 79 343 338 349 2 340 329 3 56 36 9 353 348 351 10 32 38 22 8 356 350 347 21 51 65 63 61 60 59 58 57 56 55 55 55 55 56 58 60 62 64 65 67 69 70 71 72 73 74 76 78 79 81 82 84 85 86 87 89 90
161 176 179 170 161 153 205 240 225 207 192 177 152 130 113 74 51 61 67 71 80 94 104 99 99 108 151 284 318 332 343 326 321 82 86 53 10 353 351 347 2 24 38 16 1 353 348 347 7 39 59 58 58 58 56 56 55 54 52 52 52 52 53 54 56 57 59 61 63 64 66 68 69 70 71 74 75 77 79 81 82 83 83 83 82 83
141 189 218 179 153 133 146 228 223 208 186 157 132 113 111 100 80 71 90 100 98 92 91 96 117 162 187 224 294 321 333 331 332 130 115 75 15 353 351 344 354 15 34 11 355 349 351 355 354 11 46 55 56 55 54 53 53 52 51 50 50 50 50 51 53 54 56 57 59 62 64 66 68 69 71 73 75 77 79 79 80 79 78 76 75 74
127 182 224 194 172 155 167 209 216 207 181 157 141 128 135 132 130 137 166 142 133 129 127 141 164 185 191 207 236 281 330 340 332 153 123 95 18 344 344 337 344 10 32 4 348 344 354 3 4 13 31 46 51 52 52 52 52 52 51 50 50 49 49 49 50 51 52 53 56 59 63 65 68 70 72 74 76 76 76 75 74 73 71 70 68 66
114 152 198 197 192 182 173 191 205 207 187 171 163 161 167 159 160 166 175 165 157 153 153 163 176 188 199 217 230 261 16 8 354 158 117 109 58 323 331 332 339 4 34 352 333 333 352 10 12 13 20 36 43 47 49 49 50 51 51 51 51 50 49 48 48 47 47 49 51 54 58 62 65 68 70 72 73 73 72 69 68 66 66 65 63 61
111 140 173 191 196 192 175 174 180 186 180 165 161 161 164 155 151 151 155 146 140 139 138 128 99 45 346 319 359 23 26 15 10 40 105 114 138 272 312 332 344 352 350 317 309 316 341 12 17 11 6 26 35 41 45 47 48 49 50 51 51 50 49 47 45 43 43 43 44 47 51 55 59 62 64 66 66 66 65 63 61 61 62 62 61 59
118 149 177 186 183 174 156 151 148 146 142 132 124 119 121 119 116 109 97 89 87 86 81 69 53 28 351 3 12 17 14 13 18 35 90 115 149 233 284 331 340 329 300 289 291 300 320 7 15 10 5 17 27 35 41 44 45 45 46 47 48 47 46 43 41 39 38 39 39 41 45 49 52 55 56 57 58 58 57 56 57 59 61 62 61 57
80 99 118 122 126 127 124 122 122 122 122 119 118 116 113 107 98 82 57 50 51 60 70 66 53 14 330 350 358 356 348 7 24 40 79 114 130 218 285 325 330 307 288 285 290 297 302 358 4 360 2 5 17 27 35 39 39 39 40 41 41 41 40 38 36 35 35 35 37 38 40 44 46 48 50 50 51 51 51 53 56 60 64 64 61 55
55 57 60 65 73 82 88 91 92 92 94 93 95 99 110 96 76 54 30 20 34 62 80 80 69 12 339 350 339 324 324 359 19 37 74 112 108 70 301 313 318 311 293 287 285 288 294 329 345 344 347 337 351 12 29 32 32 32 31 31 32 33 33 31 31 31 31 33 34 36 38 40 42 43 44 44 44 45 46 52 58 64 68 68 63 50
42 42 42 43 47 53 60 66 70 71 69 65 61 61 72 83 81 71 35 340 64 77 84 98 106 98 16 326 301 297 309 350 5 12 35 104 98 66 290 304 322 327 308 294 289 293 310 317 315 315 320 324 338 4 21 24 25 24 22 22 23 23 24 24 25 25 27 29 31 33 35 35 36 37 37 38 38 40 43 53 61 68 72 73 67 38
32 33 35 35 37 40 45 51 58 62 63 59 55 52 52 73 96 116 174 168 112 87 84 99 116 132 146 267 300 312 323 341 348 348 342 85 83 355 287 313 340 347 328 317 314 319 327 312 302 301 306 329 347 2 8 14 16 16 12 12 13 14 16 17 18 19 21 24 27 28 30 30 30 30 30 31 32 34 38 50 62 71 80 76 67 35
18 21 23 23 25 27 32 38 48 55 59 59 57 54 51 63 87 119 160 140 114 101 101 107 120 133 145 54 9 355 335 326 326 336 40 78 73 314 301 332 352 360 354 354 351 341 325 309 298 294 298 329 342 352 351 360 4 5 360 2 3 4 7 9 10 12 13 16 19 21 23 23 23 23 23 24 26 29 33 43 59 77 92 78 56 23
6 11 12 9 9 12 20 30 41 48 53 54 55 54 53 59 70 90 114 118 115 113 119 123 133 141 136 98 78 42 308 296 308 337 61 86 104 252 295 335 352 359 4 38 35 2 319 310 309 312 320 333 339 342 339 345 352 355 349 350 350 353 357 1 3 4 5 7 9 12 14 14 15 16 17 18 20 22 25 30 47 72 101 85 52 6
4 8 6 2 2 9 20 30 37 43 47 47 47 48 50 54 58 65 73 95 109 115 118 124 132 141 135 121 131 163 238 266 294 334 66 96 122 191 227 318 353 346 346 76 96 104 301 302 309 321 338 340 334 329 324 332 343 353 351 349 343 341 346 352 355 357 355 357 360 2 4 6 7 9 10 12 13 15 16 17 27 49 93 99 88 328
8 7 2 4 11 19 26 30 36 42 46 45 42 40 40 42 45 49 54 67 92 110 120 124 128 128 119 127 156 201 238 257 281 317 60 105 123 156 193 139 92 347 338 64 102 123 161 258 292 311 326 325 319 313 311 318 331 347 354 348 335 327 333 341 346 346 342 345 347 350 354 357 359 1 4 5 6 7 8 8 10 17 42 97 141 250
11 11 6 9 15 23 28 31 37 41 45 42 39 36 33 32 32 34 35 40 57 94 128 134 136 137 132 128 168 258 263 262 271 288 74 113 125 140 163 143 140 125 42 50 73 98 149 236 271 295 308 308 304 300 300 305 313 323 333 325 312 308 314 329 333 333 329 332 333 335 341 345 348 351 355 357 359 360 1 1 1 1 2 6 33 194
21 17 10 8 11 18 24 27 32 36 38 36 32 29 27 26 24 23 22 22 23 38 120 144 149 150 147 144 151 231 267 262 272 289 100 126 132 137 142 169 171 157 114 106 87 70 305 266 277 291 306 308 305 298 291 286 291 295 289 274 271 276 286 305 316 320 318 323 322 320 325 327 332 337 341 347 350 353 354 354 353 351 349 347 343 328
37 24 11 2 2 6 14 18 22 24 24 19 15 14 17 18 17 14 12 8 4 360 4 262 175 167 161 157 161 181 231 249 273 312 45 135 137 136 142 192 185 164 139 139 147 277 298 287 293 303 313 311 305 298 291 284 285 290 289 279 273 272 272 278 289 302 312 317 318 317 317 320 321 323 326 339 343 346 347 345 344 342 341 339 334 325
65 40 11 358 352 352 356 359 2 4 2 352 347 348 356 2 2 358 356 351 348 348 352 329 291 241 206 181 180 191 217 237 264 301 335 144 138 136 143 194 194 178 154 154 290 312 314 308 309 313 317 305 297 296 300 305 311 315 311 297 286 282 286 292 289 272 287 301 305 307 310 316 319 320 319 333 338 341 340 337 334 331 332 330 326 320
81 56 9 350 343 341 340 340 339 340 339 332 327 325 326 324 321 321 327 332 343 347 346 329 306 287 273 252 236 228 231 249 260 252 189 156 143 136 138 190 220 213 182 191 270 303 313 315 318 320 318 306 301 305 312 320 324 323 315 301 286 277 284 292 287 271 268 289 298 303 307 314 319 320 318 327 334 339 336 324 316 316 324 321 317 312
73 40 353 344 337 331 320 314 312 313 316 311 305 301 300 287 277 274 284 286 318 349 329 305 290 284 281 276 268 260 251 251 245 222 165 155 151 149 147 177 236 252 239 220 230 251 270 290 305 313 316 314 314 315 318 322 323 322 319 315 309 297 284 282 276 273 275 297 309 314 316 318 320 318 313 321 331 337 330 313 303 303 321 321 312 307
56 16 336 328 320 303 284 286 290 296 302 299 300 304 313 317 322 328 332 345 9 15 319 294 292 290 282 279 276 273 264 253 233 199 160 164 168 174 171 192 236 265 280 236 151 148 159 207 264 290 304 308 311 313 315 317 321 325 327 328 326 320 313 308 301 299 309 321 321 317 313 311 312 313 311 314 317 316 310 301 297 297 305 307 312 312
23 330 306 306 304 296 282 283 285 286 284 292 317 343 359 358 355 352 352 356 359 359 356 356 356 352 340 332 320 305 288 258 226 202 177 179 188 197 194 200 215 231 248 218 181 175 182 208 245 273 288 292 296 300 303 305 313 318 322 319 312 306 307 310 316 330 349 324 295 290 300 310 314 316 313 310 297 279 267 267 272 277 277 224 196 236
326 300 288 295 304 308 306 298 292 286 276 322 4 10 5 359 356 356 359 357 352 351 358 9 11 6 356 342 332 322 314 295 261 216 188 186 186 187 186 197 199 197 182 190 212 223 220 220 235 255 267 276 287 295 298 299 304 308 311 306 307 309 307 305 306 312 316 294 282 281 298 308 310 309 305 301 290 274 257 248 254 262 266 237 200 188
292 284 281 284 286 289 292 295 295 303 343 16 11 358 342 337 338 343 357 350 339 337 352 16 31 31 13 342 328 321 315 308 301 283 205 189 186 185 190 195 191 181 161 153 185 245 249 236 236 243 254 265 280 289 294 298 299 298 292 296 305 313 313 304 300 298 295 295 291 290 294 294 289 285 286 285 281 273 262 259 263 266 267 252 232 222
259 271 276 278 279 283 289 295 309 352 36 25 358 331 317 326 333 338 340 330 323 327 350 15 41 52 41 353 326 316 313 313 318 321 305 242 211 201 202 198 191 181 165 159 171 229 278 269 256 247 249 261 272 279 285 291 295 295 289 285 283 282 275 285 298 308 310 306 302 298 285 277 276 280 285 284 281 278 273 269 268 268 266 254 245 241
258 275 288 294 302 313 322 331 349 13 32 5 323 312 314 330 344 349 342 328 327 330 338 353 18 20 2 348 335 322 315 317 322 322 314 305 296 286 257 226 201 187 177 181 193 214 257 274 276 274 273 273 272 272 275 283 288 290 289 284 278 270 262 271 283 293 297 298 298 294 287 276 284 298 301 298 296 292 286 284 282 279 275 266 256 249
292 301 316 329 340 346 345 351 359 2 347 315 304 302 306 327 344 348 330 324 321 315 301 305 345 358 339 333 328 327 325 324 322 317 312 310 314 318 316 293 254 215 200 211 221 228 235 251 268 282 297 297 285 274 265 271 277 281 283 285 285 283 278 277 275 272 272 280 286 289 290 300 317 310 300 298 298 295 287 276 271 270 272 268 261 254
272 300 329 345 351 349 339 347 353 347 324 306 301 299 300 305 311 312 304 298 286 282 283 293 324 337 325 316 316 319 323 321 316 311 310 311 315 319 320 314 305 283 237 238 244 248 250 247 251 261 277 287 287 281 270 265 263 267 273 279 285 287 287 283 277 270 263 266 273 281 299 334 331 307 292 294 295 294 287 275 264 259 259 260 258 253
223 216 263 332 336 329 316 322 326 322 303 296 296 297 294 287 290 295 294 289 286 286 297 314 317 316 312 307 305 305 311 311 309 308 307 309 312 316 321 324 325 319 298 273 261 255 254 248 243 238 238 248 262 271 275 270 263 259 261 269 275 278 279 279 277 273 265 261 261 264 271 286 286 286 290 296 297 294 289 282 272 262 253 251 249 247
190 193 207 221 245 255 261 263 263 268 276 282 286 287 286 283 292 298 289 278 275 281 288 293 294 296 295 295 295 297 300 299 299 299 299 300 306 313 321 327 332 332 327 313 295 279 273 264 247 232 220 218 228 246 265 268 266 261 258 257 257 260 266 273 276 275 271 265 259 251 237 236 239 247 267 288 293 293 292 288 281 270 259 249 241 237
202 207 208 214 228 237 242 243 248 256 262 266 267 269 273 280 289 292 276 257 251 253 256 265 273 279 283 285 288 290 292 293 295 296 293 293 301 312 317 323 328 330 326 324 317 310 312 302 279 251 227 216 214 220 242 257 265 269 269 257 245 240 247 263 269 271 269 266 261 254 243 240 231 226 237 273 285 290 291 289 287 281 270 255 240 233
221 219 216 221 231 240 246 252 257 262 265 266 267 266 268 275 281 283 277 264 259 258 262 265 267 273 279 282 285 287 287 290 294 295 294 296 300 303 302 307 313 316 313 310 307 307 311 313 312 297 264 232 217 210 216 230 246 263 275 263 248 232 229 249 259 264 266 263 257 249 243 245 241 239 244 269 282 287 289 289 287 284 277 265 253 247